MAC711D GMMW-GMME

Flight info

Callsign MAC711D
Flight time 0h 41m
Altitude 25000
Route ARI UM372 FES/N0404F240 UA411 VARAS
Aircraft A21N/M-SDE2E3FGHIRWXY/LB1

Departure

Time 2026-05-07 18:33
Airport Nador Al Aaroui International Airport (GMMW)

Arrival

Time 2026-05-07 19:15
Airport Rabat-Salé Airport (GMME)
Time Latitude Longitude Altitude Speed Heading
2026-05-07 17:59 34.99214 -3.02922 610 ft 0 kts 124°
2026-05-07 18:28 34.99202 -3.02900 612 ft 10 kts 124°
2026-05-07 18:28 34.99189 -3.02801 619 ft 14 kts 79°
2026-05-07 18:28 34.99210 -3.02679 614 ft 16 kts 78°
2026-05-07 18:29 34.99233 -3.02541 614 ft 17 kts 78°
2026-05-07 18:29 34.99258 -3.02393 621 ft 18 kts 78°
2026-05-07 18:29 34.99276 -3.02278 609 ft 12 kts 96°
2026-05-07 18:29 34.99218 -3.02203 613 ft 14 kts 169°
2026-05-07 18:30 34.99117 -3.02180 615 ft 16 kts 162°
2026-05-07 18:30 34.99046 -3.02090 617 ft 17 kts 75°
2026-05-07 18:30 34.99075 -3.01941 618 ft 19 kts 77°
2026-05-07 18:30 34.99101 -3.01782 620 ft 20 kts 79°
2026-05-07 18:31 34.99130 -3.01609 621 ft 22 kts 78°
2026-05-07 18:31 34.99159 -3.01425 614 ft 23 kts 79°
2026-05-07 18:31 34.99225 -3.01273 610 ft 15 kts 41°
2026-05-07 18:31 34.99193 -3.01245 615 ft 12 kts 259°
2026-05-07 18:32 34.99190 -3.01261 610 ft 0 kts 259°
2026-05-07 18:32 34.99182 -3.01313 616 ft 35 kts 259°
2026-05-07 18:33 34.99074 -3.01938 617 ft 110 kts 258°
2026-05-07 18:33 34.98877 -3.03071 614 ft 164 kts 258°
2026-05-07 18:33 34.98634 -3.04504 1021 ft 168 kts 259°
2026-05-07 18:33 34.98402 -3.05902 1595 ft 171 kts 262°
2026-05-07 18:34 34.98168 -3.07314 2256 ft 169 kts 261°
2026-05-07 18:34 34.97710 -3.08704 2687 ft 188 kts 237°
2026-05-07 18:34 34.96917 -3.10050 3115 ft 204 kts 236°
2026-05-07 18:34 34.96117 -3.11543 3570 ft 215 kts 240°
2026-05-07 18:35 34.95302 -3.13171 3938 ft 236 kts 238°
2026-05-07 18:35 34.94375 -3.14914 4349 ft 254 kts 237°
2026-05-07 18:35 34.93387 -3.16760 5033 ft 264 kts 238°
2026-05-07 18:35 34.92383 -3.18637 5985 ft 264 kts 237°
2026-05-07 18:36 34.91403 -3.20477 6929 ft 262 kts 237°
2026-05-07 18:36 34.90407 -3.22349 7829 ft 264 kts 237°
2026-05-07 18:36 34.89409 -3.24225 8754 ft 262 kts 237°
2026-05-07 18:36 34.88414 -3.26090 9695 ft 264 kts 237°
2026-05-07 18:37 34.87403 -3.27988 10393 ft 274 kts 237°
2026-05-07 18:37 34.86327 -3.30007 10726 ft 296 kts 237°
2026-05-07 18:37 34.85167 -3.32184 11010 ft 318 kts 237°
2026-05-07 18:37 34.83952 -3.34460 11512 ft 329 kts 237°
2026-05-07 18:38 34.82696 -3.36813 12230 ft 334 kts 238°
2026-05-07 18:38 34.81424 -3.39193 12995 ft 338 kts 238°
2026-05-07 18:38 34.80134 -3.41605 13756 ft 341 kts 238°
2026-05-07 18:38 34.78833 -3.44036 14419 ft 344 kts 238°
2026-05-07 18:39 34.77525 -3.46480 15133 ft 346 kts 238°
2026-05-07 18:39 34.76205 -3.48942 15799 ft 349 kts 238°
2026-05-07 18:39 34.74877 -3.51419 16440 ft 352 kts 238°
2026-05-07 18:39 34.73533 -3.53922 17075 ft 355 kts 238°
2026-05-07 18:40 34.72175 -3.56451 17690 ft 359 kts 239°
2026-05-07 18:40 34.70805 -3.59004 18281 ft 363 kts 239°
2026-05-07 18:40 34.69419 -3.61582 18808 ft 365 kts 239°
2026-05-07 18:40 34.68043 -3.64139 19341 ft 368 kts 239°
2026-05-07 18:41 34.66638 -3.66748 19887 ft 370 kts 239°
2026-05-07 18:41 34.65224 -3.69371 20456 ft 372 kts 239°
2026-05-07 18:41 34.63803 -3.72007 21002 ft 374 kts 239°
2026-05-07 18:41 34.62372 -3.74655 21536 ft 376 kts 239°
2026-05-07 18:42 34.60936 -3.77313 21848 ft 376 kts 239°
2026-05-07 18:42 34.59499 -3.79972 21927 ft 377 kts 239°
2026-05-07 18:42 34.58061 -3.82632 21931 ft 377 kts 238°
2026-05-07 18:42 34.56622 -3.85290 21916 ft 377 kts 238°
2026-05-07 18:43 34.55182 -3.87948 21911 ft 377 kts 239°
2026-05-07 18:43 34.53738 -3.90612 21911 ft 377 kts 238°
2026-05-07 18:43 34.52317 -3.93230 21912 ft 377 kts 238°
2026-05-07 18:43 34.50870 -3.95895 21909 ft 377 kts 238°
2026-05-07 18:44 34.49428 -3.98548 21904 ft 378 kts 238°
2026-05-07 18:44 34.47984 -4.01204 21912 ft 377 kts 238°
2026-05-07 18:44 34.46538 -4.03863 21913 ft 377 kts 238°
2026-05-07 18:44 34.45093 -4.06519 21930 ft 377 kts 238°
2026-05-07 18:45 34.43648 -4.09167 21924 ft 377 kts 238°
2026-05-07 18:45 34.42200 -4.11824 21924 ft 378 kts 238°
2026-05-07 18:45 34.40753 -4.14473 21927 ft 378 kts 238°
2026-05-07 18:45 34.39306 -4.17122 21912 ft 376 kts 238°
2026-05-07 18:46 34.37882 -4.19727 21909 ft 376 kts 238°
2026-05-07 18:46 34.36440 -4.22368 21919 ft 376 kts 238°
2026-05-07 18:46 34.34995 -4.25009 21927 ft 376 kts 238°
2026-05-07 18:46 34.33549 -4.27650 21922 ft 376 kts 238°
2026-05-07 18:47 34.32105 -4.30284 21912 ft 376 kts 238°
2026-05-07 18:47 34.30658 -4.32920 21920 ft 376 kts 238°
2026-05-07 18:47 34.29212 -4.35553 21921 ft 376 kts 238°
2026-05-07 18:47 34.27767 -4.38185 21921 ft 376 kts 238°
2026-05-07 18:48 34.26320 -4.40815 21924 ft 376 kts 238°
2026-05-07 18:48 34.24871 -4.43450 21923 ft 376 kts 238°
2026-05-07 18:48 34.23421 -4.46082 21927 ft 376 kts 238°
2026-05-07 18:48 34.21992 -4.48676 21926 ft 376 kts 238°
2026-05-07 18:49 34.20542 -4.51307 21927 ft 376 kts 238°
2026-05-07 18:49 34.19093 -4.53934 21919 ft 376 kts 238°
2026-05-07 18:49 34.17643 -4.56557 21925 ft 376 kts 238°
2026-05-07 18:49 34.16195 -4.59179 21928 ft 375 kts 238°
2026-05-07 18:50 34.14746 -4.61799 21920 ft 375 kts 238°
2026-05-07 18:50 34.13298 -4.64411 21930 ft 375 kts 238°
2026-05-07 18:50 34.11850 -4.67028 21926 ft 375 kts 238°
2026-05-07 18:50 34.10402 -4.69643 21938 ft 374 kts 238°
2026-05-07 18:51 34.08974 -4.72219 21942 ft 375 kts 238°
2026-05-07 18:51 34.07522 -4.74831 21944 ft 375 kts 238°
2026-05-07 18:51 34.06073 -4.77439 21948 ft 374 kts 238°
2026-05-07 18:51 34.04625 -4.80045 21949 ft 374 kts 238°
2026-05-07 18:52 34.03174 -4.82653 21956 ft 374 kts 238°
2026-05-07 18:52 34.01729 -4.85248 21959 ft 375 kts 238°
2026-05-07 18:52 34.00272 -4.87863 21962 ft 374 kts 238°
2026-05-07 18:52 33.98829 -4.90455 21963 ft 374 kts 238°
2026-05-07 18:53 33.97369 -4.93073 21960 ft 374 kts 238°
2026-05-07 18:53 33.95916 -4.95679 21969 ft 375 kts 237°
2026-05-07 18:53 33.94567 -4.98303 21967 ft 374 kts 243°
2026-05-07 18:53 33.93581 -5.01186 21970 ft 373 kts 252°
2026-05-07 18:54 33.93085 -5.04249 21949 ft 369 kts 264°
2026-05-07 18:54 33.93113 -5.07279 21776 ft 358 kts 272°
2026-05-07 18:54 33.93356 -5.10249 21541 ft 356 kts 273°
2026-05-07 18:54 33.93613 -5.13211 21293 ft 355 kts 273°
2026-05-07 18:55 33.93854 -5.16166 21041 ft 354 kts 272°
2026-05-07 18:55 33.94088 -5.19113 20791 ft 354 kts 272°
2026-05-07 18:55 33.94311 -5.22021 20545 ft 353 kts 272°
2026-05-07 18:55 33.94537 -5.24951 20299 ft 352 kts 272°
2026-05-07 18:56 33.94763 -5.27888 20041 ft 351 kts 272°
2026-05-07 18:56 33.94986 -5.30812 19805 ft 351 kts 272°
2026-05-07 18:56 33.95208 -5.33733 19574 ft 350 kts 272°
2026-05-07 18:56 33.95428 -5.36661 19337 ft 350 kts 272°
2026-05-07 18:57 33.95643 -5.39581 19102 ft 350 kts 272°
2026-05-07 18:57 33.95860 -5.42497 18872 ft 350 kts 272°
2026-05-07 18:57 33.96076 -5.45409 18644 ft 349 kts 272°
2026-05-07 18:57 33.96293 -5.48322 18415 ft 349 kts 272°
2026-05-07 18:58 33.96510 -5.51230 18180 ft 348 kts 272°
2026-05-07 18:58 33.96724 -5.54128 17908 ft 347 kts 272°
2026-05-07 18:58 33.96934 -5.56980 17662 ft 346 kts 272°
2026-05-07 18:58 33.97146 -5.59862 17391 ft 345 kts 272°
2026-05-07 18:59 33.97356 -5.62738 17122 ft 344 kts 271°
2026-05-07 18:59 33.97564 -5.65605 16868 ft 343 kts 271°
2026-05-07 18:59 33.97781 -5.68453 16545 ft 340 kts 274°
2026-05-07 18:59 33.98345 -5.71237 15760 ft 344 kts 284°
2026-05-07 19:00 33.99133 -5.73964 14887 ft 347 kts 285°
2026-05-07 19:00 33.99947 -5.76703 14005 ft 349 kts 285°
2026-05-07 19:00 34.00755 -5.79462 13334 ft 344 kts 284°
2026-05-07 19:00 34.01529 -5.82140 12860 ft 334 kts 284°
2026-05-07 19:01 34.02279 -5.84757 12465 ft 327 kts 284°
2026-05-07 19:01 34.02997 -5.87287 12091 ft 322 kts 283°
2026-05-07 19:01 34.03717 -5.89841 11694 ft 321 kts 283°
2026-05-07 19:01 34.04439 -5.92397 11320 ft 322 kts 283°
2026-05-07 19:02 34.05161 -5.94950 10925 ft 321 kts 283°
2026-05-07 19:02 34.05872 -5.97458 10685 ft 310 kts 283°
2026-05-07 19:02 34.06554 -5.99865 10514 ft 297 kts 283°
2026-05-07 19:02 34.07206 -6.02178 10378 ft 285 kts 283°
2026-05-07 19:03 34.07833 -6.04403 10167 ft 276 kts 283°
2026-05-07 19:03 34.08435 -6.06542 9851 ft 272 kts 283°
2026-05-07 19:03 34.09039 -6.08693 9464 ft 269 kts 283°
2026-05-07 19:03 34.09638 -6.10832 9096 ft 270 kts 284°
2026-05-07 19:04 34.10237 -6.12976 8759 ft 271 kts 284°
2026-05-07 19:04 34.10839 -6.15122 8427 ft 271 kts 284°
2026-05-07 19:04 34.11444 -6.17285 8112 ft 271 kts 285°
2026-05-07 19:04 34.12047 -6.19438 7815 ft 271 kts 285°
2026-05-07 19:05 34.12649 -6.21587 7528 ft 270 kts 285°
2026-05-07 19:05 34.13251 -6.23737 7226 ft 270 kts 285°
2026-05-07 19:05 34.13843 -6.25860 6919 ft 271 kts 285°
2026-05-07 19:05 34.14446 -6.28020 6596 ft 272 kts 285°
2026-05-07 19:06 34.15052 -6.30192 6275 ft 273 kts 285°
2026-05-07 19:06 34.16266 -6.34557 5596 ft 275 kts 286°
2026-05-07 19:06 34.16876 -6.36747 5279 ft 275 kts 286°
2026-05-07 19:07 34.17485 -6.38933 4954 ft 275 kts 288°
2026-05-07 19:07 34.18092 -6.41106 4623 ft 272 kts 288°
2026-05-07 19:07 34.18683 -6.43233 4287 ft 270 kts 288°
2026-05-07 19:07 34.19275 -6.45363 3998 ft 265 kts 288°
2026-05-07 19:08 34.19853 -6.47455 3721 ft 259 kts 288°
2026-05-07 19:08 34.20416 -6.49487 3481 ft 253 kts 289°
2026-05-07 19:08 34.20970 -6.51490 3140 ft 253 kts 289°
2026-05-07 19:08 34.21521 -6.53478 2967 ft 243 kts 289°
2026-05-07 19:09 34.22039 -6.55355 2939 ft 228 kts 290°
2026-05-07 19:09 34.22532 -6.57138 2958 ft 224 kts 289°
2026-05-07 19:09 34.23007 -6.58905 2963 ft 214 kts 287°
2026-05-07 19:09 34.23216 -6.60609 2952 ft 196 kts 268°
2026-05-07 19:10 34.22773 -6.62031 2942 ft 179 kts 232°
2026-05-07 19:10 34.21847 -6.62943 2828 ft 167 kts 214°
2026-05-07 19:10 34.20823 -6.63635 2683 ft 169 kts 215°
2026-05-07 19:10 34.19826 -6.64359 2760 ft 167 kts 213°
2026-05-07 19:11 34.18832 -6.65089 2732 ft 164 kts 214°
2026-05-07 19:11 34.17914 -6.65764 2588 ft 151 kts 215°
2026-05-07 19:11 34.17013 -6.66428 2478 ft 152 kts 215°
2026-05-07 19:11 34.16112 -6.67091 2437 ft 150 kts 215°
2026-05-07 19:12 34.15238 -6.67734 2304 ft 149 kts 214°
2026-05-07 19:12 34.14353 -6.68385 2106 ft 149 kts 214°
2026-05-07 19:12 34.13480 -6.69027 1896 ft 147 kts 215°
2026-05-07 19:12 34.12603 -6.69672 1707 ft 149 kts 215°
2026-05-07 19:13 34.11758 -6.70292 1510 ft 144 kts 214°
2026-05-07 19:13 34.10870 -6.70940 1295 ft 147 kts 213°
2026-05-07 19:13 34.10013 -6.71569 1059 ft 141 kts 216°
2026-05-07 19:13 34.09159 -6.72204 932 ft 143 kts 214°
2026-05-07 19:14 34.08305 -6.72821 647 ft 144 kts 216°
2026-05-07 19:14 34.07460 -6.73466 503 ft 145 kts 214°
2026-05-07 19:14 34.06626 -6.74076 362 ft 142 kts 211°
2026-05-07 19:14 34.05819 -6.74660 265 ft 113 kts 211°
2026-05-07 19:15 34.05317 -6.75023 266 ft 55 kts 213°
2026-05-07 19:15 34.05033 -6.75244 265 ft 50 kts 205°
2026-05-07 19:15 34.04763 -6.75384 268 ft 32 kts 205°
2026-05-07 19:15 34.04711 -6.75414 269 ft 30 kts 208°